User: anonymous   Login
Location: Unspecified
(0.0000°N, 0.0000°E)
Time: 07:46:18
(UTC+00:00)
Language:

GGSE 1 - Orbit

View from above orbital plane
View from above orbital plane
View from above satellite
View from above satellite

Ground track
Ground track

The orbit data is extracted from the following two-line orbital elements,

1   728U 64001B   18112.45074707 -.00000025 +00000-0 +20804-4 0  9991
2   728 069.9052 131.7797 0015675 228.9929 130.9822 13.97110340763695
Epoch (UTC): 22 April 2018 10:49:04
Eccentricity: 0.0015675
inclination: 69.9052°
perigee height: 892 km
apogee height: 915 km
right ascension of ascending node: 131.7797°
argument of perigee: 228.9929°
revolutions per day: 13.97110340
mean anomaly at epoch: 130.9822°
orbit number at epoch: 76369

The dashed part of the orbit path shows where the satellite is in the earth's shadow,  

DLR